CDN519 EGPF-CYUL

Flight info

Callsign CDN519
Flight time N/A
Altitude 38000
Route LOMON DCT TIR DCT GOMUP/M083F380 DCT 5920N DCT 6130N DCT 6140N DCT 5950N DCT PORGY/N0481F380 DCT 53N064W/N0489F400 DCT YBC DCT TIBOS ROCKT3
Aircraft B77L/H-SDE1E2E3FGHIJ2J3J4J5M1RWXY/LB1D1

Departure

Time 2026-05-07 15:40
Airport Glasgow Airport (EGPF)

Arrival

Time N/A
Airport Montreal / Pierre Elliott Trudeau International Airport (CYUL)
Time Latitude Longitude Altitude Speed Heading
2026-05-07 15:23 55.86632 -4.43715 37 ft 0 kts 253°
2026-05-07 15:32 55.86637 -4.43687 37 ft 3 kts 253°
2026-05-07 15:32 55.86642 -4.43654 36 ft 3 kts 253°
2026-05-07 15:32 55.86647 -4.43619 35 ft 3 kts 279°
2026-05-07 15:32 55.86639 -4.43587 35 ft 3 kts 320°
2026-05-07 15:33 55.86628 -4.43575 35 ft 0 kts 342°
2026-05-07 15:35 55.86632 -4.43577 35 ft 6 kts 342°
2026-05-07 15:35 55.86720 -4.43605 37 ft 14 kts
2026-05-07 15:35 55.86771 -4.43471 37 ft 14 kts 74°
2026-05-07 15:36 55.86797 -4.43305 37 ft 14 kts 73°
2026-05-07 15:36 55.86824 -4.43137 37 ft 14 kts 73°
2026-05-07 15:36 55.86860 -4.42976 37 ft 14 kts 49°
2026-05-07 15:36 55.86944 -4.42887 36 ft 14 kts 27°
2026-05-07 15:37 55.87034 -4.42817 37 ft 16 kts 21°
2026-05-07 15:37 55.87161 -4.42732 37 ft 21 kts 21°
2026-05-07 15:37 55.87301 -4.42638 39 ft 21 kts 20°
2026-05-07 15:37 55.87430 -4.42504 38 ft 22 kts 44°
2026-05-07 15:38 55.87534 -4.42305 37 ft 22 kts 45°
2026-05-07 15:38 55.87642 -4.42109 35 ft 22 kts 49°
2026-05-07 15:38 55.87741 -4.41923 35 ft 17 kts 45°
2026-05-07 15:38 55.87844 -4.41839 34 ft 17 kts
2026-05-07 15:39 55.87922 -4.41935 36 ft 11 kts 271°
2026-05-07 15:39 55.87906 -4.41985 37 ft 0 kts 229°
2026-05-07 15:39 55.87874 -4.42048 37 ft 35 kts 226°
2026-05-07 15:39 55.87519 -4.42711 42 ft 110 kts 226°
2026-05-07 15:40 55.86842 -4.43962 68 ft 163 kts 224°
2026-05-07 15:40 55.86050 -4.45400 662 ft 167 kts 223°
2026-05-07 15:40 55.85157 -4.46974 1087 ft 195 kts 225°
2026-05-07 15:40 55.84164 -4.48845 1707 ft 221 kts 225°
2026-05-07 15:41 55.83108 -4.50845 2864 ft 222 kts 225°
2026-05-07 15:41 55.82027 -4.52881 3922 ft 228 kts 225°
2026-05-07 15:41 55.80964 -4.55023 4955 ft 234 kts 235°
2026-05-07 15:41 55.80322 -4.57713 5968 ft 244 kts 255°
2026-05-07 15:42 55.80262 -4.60776 6950 ft 256 kts 275°
2026-05-07 15:42 55.80905 -4.63798 7964 ft 270 kts 299°
2026-05-07 15:42 55.82297 -4.66144 8986 ft 286 kts 327°
2026-05-07 15:42 55.84250 -4.67101 9965 ft 301 kts 357°
2026-05-07 15:43 55.86298 -4.66196 10866 ft 310 kts 30°
2026-05-07 15:43 55.87924 -4.63739 11662 ft 314 kts 47°
2026-05-07 15:43 55.89484 -4.60847 12160 ft 336 kts 46°
2026-05-07 15:43 55.91209 -4.57772 12394 ft 366 kts 45°
2026-05-07 15:44 55.93141 -4.54599 12579 ft 389 kts 35°
2026-05-07 15:44 55.95664 -4.52633 13087 ft 402 kts
2026-05-07 15:44 55.98456 -4.52576 13939 ft 404 kts 346°
2026-05-07 15:44 56.01104 -4.54118 14735 ft 400 kts 334°
2026-05-07 15:45 56.03679 -4.56103 15404 ft 402 kts 329°
2026-05-07 15:45 56.05895 -4.59158 15993 ft 403 kts 307°
2026-05-07 15:45 56.07416 -4.63329 16914 ft 399 kts 291°
2026-05-07 15:45 56.08426 -4.67945 17709 ft 400 kts 285°
2026-05-07 15:46 56.10267 -4.77528 19129 ft 412 kts 284°
2026-05-07 15:46 56.11185 -4.82406 19911 ft 415 kts 284°
2026-05-07 15:46 56.12118 -4.87328 20681 ft 419 kts 284°
2026-05-07 15:47 56.13056 -4.92234 21406 ft 424 kts 284°
2026-05-07 15:47 56.14022 -4.97255 22114 ft 428 kts 284°
2026-05-07 15:47 56.15006 -5.02346 22843 ft 433 kts 284°
2026-05-07 15:47 56.16003 -5.07492 23549 ft 438 kts 284°
2026-05-07 15:48 56.17005 -5.12673 24151 ft 442 kts 284°
2026-05-07 15:48 56.18016 -5.17909 24754 ft 445 kts 284°
2026-05-07 15:48 56.19034 -5.23192 25346 ft 449 kts 284°
2026-05-07 15:48 56.20056 -5.28517 25926 ft 453 kts 284°
2026-05-07 15:49 56.21084 -5.33886 26487 ft 457 kts 284°
2026-05-07 15:49 56.22109 -5.39259 27010 ft 461 kts 283°
2026-05-07 15:49 56.23150 -5.44729 27570 ft 464 kts 283°
2026-05-07 15:49 56.24199 -5.50258 28102 ft 468 kts 283°
2026-05-07 15:50 56.25252 -5.55816 28610 ft 471 kts 283°
2026-05-07 15:50 56.26308 -5.61416 29095 ft 475 kts 283°
2026-05-07 15:50 56.27371 -5.67070 29547 ft 478 kts 283°
2026-05-07 15:50 56.28439 -5.72760 30063 ft 479 kts 283°
2026-05-07 15:51 56.29503 -5.78442 30621 ft 478 kts 283°
2026-05-07 15:51 56.30562 -5.84105 31179 ft 476 kts 283°
2026-05-07 15:51 56.31604 -5.89706 31697 ft 475 kts 282°
2026-05-07 15:51 56.32652 -5.95360 32201 ft 475 kts 282°
2026-05-07 15:52 56.33357 -5.99172 32539 ft 474 kts 282°
2026-05-07 15:52 56.34387 -6.04758 33045 ft 473 kts 282°
2026-05-07 15:52 56.35422 -6.10392 33547 ft 473 kts 282°
2026-05-07 15:52 56.36456 -6.16036 34004 ft 472 kts 282°
2026-05-07 15:53 56.37481 -6.21643 34440 ft 470 kts 282°
2026-05-07 15:53 56.38502 -6.27247 34846 ft 469 kts 282°
2026-05-07 15:53 56.39519 -6.32847 35236 ft 468 kts 282°
2026-05-07 15:53 56.40517 -6.38356 35630 ft 467 kts 283°
2026-05-07 15:54 56.41524 -6.43935 36021 ft 466 kts 283°
2026-05-07 15:54 56.42525 -6.49499 36387 ft 465 kts 283°
2026-05-07 15:54 56.43521 -6.55049 36757 ft 464 kts 283°
2026-05-07 15:54 56.44513 -6.60597 37114 ft 463 kts 283°
2026-05-07 15:55 56.45501 -6.66136 37450 ft 463 kts 283°
2026-05-07 15:55 56.46485 -6.71673 37767 ft 463 kts 283°
2026-05-07 15:55 56.47472 -6.77244 37813 ft 467 kts 284°
2026-05-07 15:56 56.49449 -6.88434 37851 ft 465 kts 283°
2026-05-07 15:56 56.51409 -6.99541 37853 ft 460 kts 283°
2026-05-07 15:57 56.53332 -7.10494 37859 ft 458 kts 283°
2026-05-07 15:57 56.55250 -7.21490 37857 ft 457 kts 283°
2026-05-07 15:58 56.57158 -7.32506 37858 ft 457 kts 283°
2026-05-07 15:58 56.59057 -7.43532 37843 ft 458 kts 283°
2026-05-07 15:59 56.60950 -7.54590 37852 ft 460 kts 283°
2026-05-07 15:59 56.62840 -7.65703 37839 ft 461 kts 283°
2026-05-07 16:00 56.64718 -7.76805 37837 ft 463 kts 283°
2026-05-07 16:00 56.66599 -7.88003 37827 ft 464 kts 283°
2026-05-07 16:01 56.68476 -7.99247 37831 ft 464 kts 283°
2026-05-07 16:01 56.70341 -8.10480 37831 ft 463 kts 283°
2026-05-07 16:02 56.72194 -8.21719 37818 ft 463 kts 283°
2026-05-07 16:02 56.74036 -8.32969 37815 ft 463 kts 283°
2026-05-07 16:03 56.75868 -8.44226 37811 ft 463 kts 282°
2026-05-07 16:03 56.77688 -8.55491 37805 ft 463 kts 282°
2026-05-07 16:04 56.79486 -8.66686 37800 ft 463 kts 282°
2026-05-07 16:04 56.81287 -8.77973 37792 ft 463 kts 282°
2026-05-07 16:05 56.83081 -8.89291 37788 ft 463 kts 282°
2026-05-07 16:05 56.84862 -9.00604 37785 ft 463 kts 282°
2026-05-07 16:06 56.86632 -9.11922 37779 ft 463 kts 282°
2026-05-07 16:06 56.88390 -9.23243 37775 ft 463 kts 282°
2026-05-07 16:07 56.90140 -9.34585 37772 ft 463 kts 282°
2026-05-07 16:07 56.91866 -9.45850 37764 ft 462 kts 282°
2026-05-07 16:08 56.93592 -9.57192 37767 ft 462 kts 282°
2026-05-07 16:08 56.95305 -9.68524 37758 ft 461 kts 282°
2026-05-07 16:09 56.97008 -9.79867 37752 ft 461 kts 282°
2026-05-07 16:09 56.98700 -9.91207 37748 ft 460 kts 282°
2026-05-07 16:10 57.00563 -10.02372 37747 ft 462 kts 288°
2026-05-07 16:10 57.03220 -10.13141 37746 ft 463 kts 291°
2026-05-07 16:11 57.05959 -10.23874 37739 ft 463 kts 291°
2026-05-07 16:11 57.08665 -10.34611 37734 ft 463 kts 291°
2026-05-07 16:12 57.11332 -10.45335 37733 ft 462 kts 291°
2026-05-07 16:12 57.13993 -10.56121 37732 ft 462 kts 291°
2026-05-07 16:13 57.16642 -10.66919 37727 ft 462 kts 291°
2026-05-07 16:13 57.19288 -10.77750 37723 ft 462 kts 291°
2026-05-07 16:14 57.21919 -10.88573 37721 ft 463 kts 291°
2026-05-07 16:14 57.24542 -10.99418 37722 ft 463 kts 291°
2026-05-07 16:15 57.27143 -11.10219 37718 ft 463 kts 291°
2026-05-07 16:15 57.29748 -11.21097 37709 ft 463 kts 291°
2026-05-07 16:16 57.32344 -11.31989 37708 ft 462 kts 291°
2026-05-07 16:16 57.34928 -11.42890 37706 ft 462 kts 291°
2026-05-07 16:17 57.37504 -11.53806 37705 ft 462 kts 291°
2026-05-07 16:17 57.40070 -11.64740 37707 ft 462 kts 291°
2026-05-07 16:18 57.42620 -11.75658 37708 ft 461 kts 290°
2026-05-07 16:18 57.45142 -11.86512 37690 ft 461 kts 290°
2026-05-07 16:19 57.47673 -11.97463 37690 ft 460 kts 290°
2026-05-07 16:19 57.50187 -12.08396 37692 ft 460 kts 290°
2026-05-07 16:20 57.52690 -12.19335 37693 ft 459 kts 290°
2026-05-07 16:20 57.55187 -12.30306 37694 ft 459 kts 290°
2026-05-07 16:21 57.57652 -12.41194 37696 ft 458 kts 290°
2026-05-07 16:21 57.60120 -12.52150 37702 ft 458 kts 290°
2026-05-07 16:22 57.62578 -12.63116 37703 ft 457 kts 290°
2026-05-07 16:22 57.65023 -12.74084 37706 ft 457 kts 290°
2026-05-07 16:23 57.67437 -12.84969 37714 ft 456 kts 290°
2026-05-07 16:23 57.69858 -12.95943 37712 ft 456 kts 290°
2026-05-07 16:24 57.72265 -13.06910 37720 ft 455 kts 290°
2026-05-07 16:24 57.74658 -13.17874 37723 ft 454 kts 290°
2026-05-07 16:25 57.77039 -13.28838 37727 ft 454 kts 290°
2026-05-07 16:25 57.79392 -13.39729 37733 ft 453 kts 290°
2026-05-07 16:26 57.81748 -13.50695 37742 ft 452 kts 289°
2026-05-07 16:26 57.84091 -13.61657 37747 ft 452 kts 290°
2026-05-07 16:27 57.86419 -13.72608 37757 ft 451 kts 289°
2026-05-07 16:27 57.88723 -13.83502 37761 ft 450 kts 289°
2026-05-07 16:28 57.91027 -13.94455 37767 ft 450 kts 289°
2026-05-07 16:28 57.93320 -14.05417 37775 ft 449 kts 289°
2026-05-07 16:29 57.95597 -14.16363 37787 ft 449 kts 289°
2026-05-07 16:29 57.97864 -14.27317 37787 ft 449 kts 289°
2026-05-07 16:30 58.00108 -14.38219 37794 ft 449 kts 289°
2026-05-07 16:30 58.02359 -14.49213 37802 ft 450 kts 289°
2026-05-07 16:31 58.04607 -14.60259 37812 ft 450 kts 289°
2026-05-07 16:31 58.06846 -14.71316 37815 ft 451 kts 289°
2026-05-07 16:32 58.09081 -14.82414 37827 ft 452 kts 289°
2026-05-07 16:32 58.11309 -14.93543 37830 ft 453 kts 289°
2026-05-07 16:33 58.13533 -15.04712 37842 ft 454 kts 289°
2026-05-07 16:33 58.15735 -15.15831 37846 ft 454 kts 289°
2026-05-07 16:34 58.17946 -15.27060 37854 ft 454 kts 289°
2026-05-07 16:34 58.20146 -15.38301 37861 ft 454 kts 289°
2026-05-07 16:35 58.22335 -15.49547 37869 ft 454 kts 289°
2026-05-07 16:35 58.24147 -15.58909 37867 ft 454 kts 289°
2026-05-07 16:36 58.26317 -15.70174 37879 ft 454 kts 289°
2026-05-07 16:36 58.28474 -15.81442 37883 ft 454 kts 289°
2026-05-07 16:37 58.30622 -15.92723 37891 ft 453 kts 288°
2026-05-07 16:37 58.32762 -16.04032 37895 ft 453 kts 288°
2026-05-07 16:38 58.34872 -16.15247 37904 ft 453 kts 288°
2026-05-07 16:38 58.36990 -16.26568 37908 ft 453 kts 288°
2026-05-07 16:39 58.39094 -16.37885 37918 ft 453 kts 288°
2026-05-07 16:39 58.41178 -16.49163 37922 ft 453 kts 288°
2026-05-07 16:40 58.43262 -16.60501 37935 ft 452 kts 288°
2026-05-07 16:40 58.45335 -16.71852 37937 ft 452 kts 288°
2026-05-07 16:41 58.47398 -16.83215 37947 ft 452 kts 288°
2026-05-07 16:41 58.49452 -16.94600 37949 ft 452 kts 288°
2026-05-07 16:42 58.51493 -17.05980 37959 ft 452 kts 288°
2026-05-07 16:42 58.53525 -17.17380 37961 ft 452 kts 288°
2026-05-07 16:43 58.55538 -17.28743 37972 ft 452 kts 287°
2026-05-07 16:43 58.57549 -17.40162 37974 ft 452 kts 287°
2026-05-07 16:44 58.59545 -17.51571 37986 ft 451 kts 287°
2026-05-07 16:44 58.61522 -17.62940 37986 ft 451 kts 287°
2026-05-07 16:45 58.63497 -17.74363 37998 ft 451 kts 287°
2026-05-07 16:45 58.65464 -17.85820 38001 ft 450 kts 287°
2026-05-07 16:46 58.67414 -17.97244 38007 ft 450 kts 287°
2026-05-07 16:46 58.69341 -18.08608 38011 ft 449 kts 287°